HADES-R

Last updated on Wed Feb 04 2026 00:03:14 GMT+0000 (Coordinated Universal Time)

1 62690U 25009CK 26032.99082620 .05664363 23962-5 28116-2 0 9998 2 62690 97.3536 123.7794 0009922 302.1245 57.9081 16.20799086 58843
UTC large
Height (km)
Speed (km/s)
/
Latitude / Longitude
Inclination (degrees)
Orbital Period (minutes)
Azimuth
Elevation
Range (km)
Doppler Factor

Next 0 passes for location: London (51.5072 / 0.1276)

Sorry there are no passes over London.
HADES-R